This demonstration page uses our WeatherBlox Daily Observations layout. Learn more.

Left ArrowRight Arrow

39.29038, -76.61219

Hourly Observations for May 5, 2019

Temp ( °F °C ) Dew Point ( °F °C ) Humidity (%) Winds ( mph kmh ) Pressure ( in mb ) Visibility ( mi km ) Precip ( " mm )
12:54 am 00:54 undefined 68 20 62 16.7 81 81 undefined N/A 29.80 1009 N/A 0.01 0.25
1:54 am 01:54 undefined 66 18.9 62 16.7 87 87 undefined N/A 29.78 1008 N/A 0.07 1.78
2:54 am 02:54 undefined 66 18.9 63 17.2 90 90 undefined N/A 29.75 1007 N/A 0.02 0.51
3:54 am 03:54 undefined 66 18.9 63 17.2 90 90 undefined N/A 29.74 1007 N/A N/A
4:54 am 04:54 undefined 65 18.3 63 17.2 93 93 undefined N/A 29.73 1007 N/A 0.02 0.51
5:54 am 05:54 undefined 64 17.8 62 16.7 93 93 undefined N/A 29.74 1007 N/A 0.01 0.25
6:54 am 06:54 undefined 63 17.2 61 16.1 93 93 undefined N/A 29.74 1007 N/A 0.05 1.27
7:54 am 07:54 undefined 63 17.2 61 16.1 93 93 undefined N/A 29.74 1007 N/A 0.01 0.25
8:54 am 08:54 undefined 62 16.7 60 15.6 93 93 undefined N/A 29.77 1008 N/A 0.07 1.78
9:54 am 09:54 undefined 62 16.7 60 15.6 93 93 undefined N/A 29.75 1007 N/A 0.08 2.03
10:54 am 10:54 undefined 61 16.1 59 15 93 93 undefined N/A 29.73 1007 N/A 0.02 0.51
11:54 am 11:54 undefined 62 16.7 58 14.4 86 86 undefined N/A 29.73 1007 N/A 0.01 0.25
12:54 pm 12:54 undefined 61 16.1 58 14.4 90 90 undefined N/A 29.71 1006 N/A 0.01 0.25
1:54 pm 13:54 undefined 60 15.6 57 13.9 90 90 undefined N/A 29.71 1006 N/A 0.04 1.02
2:54 pm 14:54 undefined 59 15 57 13.9 93 93 undefined N/A 29.71 1006 N/A 0.09 2.29
3:54 pm 15:54 undefined 59 15 56 13.3 90 90 undefined N/A 29.69 1006 N/A 0.04 1.02
4:54 pm 16:54 undefined 59 15 56 13.3 90 90 undefined N/A 29.67 1005 N/A 0.01 0.25
5:54 pm 17:54 undefined 58 14.4 56 13.3 93 93 undefined N/A 29.72 1006 N/A 0.05 1.27
6:54 pm 18:54 undefined 57 13.9 55 12.8 93 93 undefined N/A 29.72 1007 N/A 0.28 7.11
7:54 pm 19:54 undefined 57 13.9 54 12.2 90 90 undefined N/A 29.76 1008 N/A 0.03 0.76
8:54 pm 20:54 undefined 57 13.9 53 11.7 87 87 undefined N/A 29.76 1008 N/A 0.01 0.25
9:54 pm 21:54 undefined 57 13.9 53 11.7 87 87 undefined N/A 29.80 1009 N/A N/A
10:54 pm 22:54 undefined 57 13.9 53 11.7 87 87 undefined N/A 29.83 1010 N/A N/A
11:54 pm 23:54 undefined 58 14.4 53 11.7 84 84 undefined N/A 29.84 1011 N/A N/A

Powered by AerisWeather